Location: Unspecified
(50.7693°N, 0.0000°E)
Time: 08:50:00
(UTC+00:00)

deb Explorer IX - Pass Details

Date: 18 June 2019
Orbit: 539 x 1112 km, 38.8° (Epoch: 24 July)

Event Time Altitude Azimuth Distance (km) Brightness Sun altitude
Rises 20:07:43 0° 263° (W) 3,812 ? 0.2°
Reaches altitude 10° 20:11:47 10° 243° (WSW) 2,760 ? -0.3°
Maximum altitude 20:15:19 15° 211° (SSW) 2,307 ? -0.7°
Drops below altitude 10° 20:18:39 10° 177° (S) 2,546 ? -1.1°
Sets 20:22:10 0° 155° (SSE) 3,353 ? -1.6°
